Location: Arrien
(42.8963°N, 1.0429°E)
Time: 14:24:22
(UTC+00:00)

BlueWalker 3 - Pass Details

Date: 23 February 2026
Orbit: 451 x 458 km, 53.2° (Epoch: 6 March)

Event Time Altitude Azimuth Distance (km) Brightness Sun altitude
Rises 05:47:18 0° 214° (SW) 2,462 5.1 -10.7°
Reaches altitude 10° 05:49:30 10° 207° (SSW) 1,591 4.3 -10.3°
Maximum altitude 05:52:52 40° 136° (SE) 686 3.1 -9.6°
Drops below altitude 10° 05:56:16 10° 66° (ENE) 1,597 5.6 -9.0°
Sets 05:58:28 0° 59° (ENE) 2,472 6.4 -8.6°
